{"data":{"norad_id":59241,"epoch":"2026-09-20T21:04:19.850592Z","epoch_age_seconds":126148,"freshness":"FRESH","line1":"1 59241U 24049L   26263.87800753  .00003936  00000+0  15259-3 0  9992","line2":"2 59241  43.0037 121.5270 0000845 262.1968  97.8788 15.27557606142254","mean_motion":15.27557606,"eccentricity":8.45e-5,"inclination_deg":43.0037,"raan_deg":121.527,"arg_perigee_deg":262.1968,"mean_anomaly_deg":97.8788,"bstar":0.00015259,"rev_number":14225,"period_min":94.268130664527,"perigee_km":482.53637665966,"apogee_km":483.69592844244,"semimajor_km":6861.253152551,"source":"CELESTRAK","updated_at":"2026-09-21T09:00:34.076355Z"}}